Weather in Mongokhto

Russia / Khabarovsk Krai     49°14′16″N   140°13′45″E
temp.,
°C
wind,
m/s
gust,
m/s
humid.,
%
clouds,
%
prec.,
mm/h
press.,
hPa
HPBL,
m
27 february, sat
sat2701:00−17wnw238698 0.0 102845
04:00−20wnw338770 0.0 102968
07:00−21wnw33860 0.0 103070
10:00−15wnw35810 0.0 1030212
13:00−7wnw23730 0.0 1029414
16:00−5s13712 0.0 1026541
19:00−12s129384 0.0 102621
22:00−11ssw119091 0.0 102421
28 february, sun
sun2801:00−11ssw0191100 0.0 102021
04:00−9wnw1196100 0.8 101522
07:00−9wsw1188100 0.0 101321
10:00−3wsw2875100 0.0 1011726
13:000n2480100 0.0 1011559
16:00+1w178397 0.0 10111154
19:00−7wnw237894 0.0 101454
22:00−11wnw278097 0.0 1016174
1 march, mon
mon101:00−14wnw358198 0.0 1018112
04:00−15wnw388099 0.0 1020186
07:00−18w46800 0.0 1022106
10:00−14nw5106915 0.0 1023562
13:00−11wnw466659 0.0 1023891
16:00−12w236833 0.0 1024980
19:00−15wnw368598 0.1 1026276
22:00−17w5137058 0.1 1028529
2 march, tue
tue201:00−18wnw513720 0.0 1028426
04:00−21wnw38770 0.0 1028227
07:00−23w34800 0.0 1030115
10:00−18wnw37720 0.0 1029402
13:00−14nw34610 0.0 1027982
16:00−13ne135928 0.0 10261231
19:00−18nnw1278100 0.0 102820
22:00−21nw228264 0.0 102921
3 march, wed
wed301:00−23wnw23830 0.0 102825
04:00−25wnw33830 0.0 102849
07:00−26wnw33820 0.0 102760
10:00−20wnw24780 0.0 1026216
13:00−11wnw14620 0.0 1024647
16:00−10sse24700 0.0 1022419
19:00−16ssw12910 0.0 102120
22:00−15wsw118721 0.0 101921